Flag for USA

Past Weather in 39°49'58"N, 104°57'25"W, USA — Yesterday and Last 2 Weeks

Now
88 °F

Scattered clouds.


Feels Like: 84 °F
Forecast: 94 / 66 °F
Wind: 8 mph from North

Location: Buckley Air Force Base

Current Time: Aug 8, 2020 at 12:17:32 pm

Latest Report: Aug 8, 2020 at 10:58 am


Visibility: 10 mi

Pressure: 29.91 "Hg

Humidity: 9%

Dew Point: 22 °F

Location of 39°49'58"N, 104°57'25"WLocation

Past Weather in 39°49'58"N, 104°57'25"W — Graph

°F

39°49'58"N, 104°57'25"W Temperature Yesterday

Maximum temperature yesterday: 96 °F (at 3:58 pm)
Minimum temperature yesterday: 66 °F (at 5:58 am)
Average temperature yesterday: 79 °F

High & Low Weather Summary for the Past Weeks

 TemperatureHumidityPressure
High96 °F (Aug 7, 3:58 pm)100% (Jul 27, 4:58 am)30.20 "Hg (Jul 27, 4:58 am)
Low55 °F (Jul 30, 3:58 am)7% (Aug 7, 1:58 pm)29.76 "Hg (Aug 6, 12:58 pm)
Average72 °F52%29.95 "Hg
* Reported Jul 24 10:58 am — Aug 8 10:58 am, 39°49'58"N, 104°57'25"W. Weather by CustomWeather, © 2020

Note: Actual official high and low records may vary slightly from our data, if they occured in-between our weather recording intervals... More about our weather records

39°49'58"N, 104°57'25"W Weather History for the Previous 24 Hours

Scroll right to see more
 ConditionsComfort  
Time TempWeatherWind HumidityBarometerVisibility
10:58 am
Sat, Aug 8
88 °FScattered clouds.8 mph9%29.91 "Hg10 mi
9:58 am82 °FScattered clouds.5 mph14%29.93 "Hg10 mi
8:58 am81 °FScattered clouds.6 mph16%29.93 "Hg10 mi
7:58 am71 °FScattered clouds.9 mph20%29.92 "Hg10 mi
6:58 am68 °FScattered clouds.9 mph20%29.90 "Hg10 mi
5:58 am64 °FPassing clouds.9 mph24%29.89 "Hg10 mi
4:58 am64 °FPassing clouds.8 mph24%29.86 "Hg10 mi
3:58 am64 °FPassing clouds.7 mph25%29.85 "Hg10 mi
2:58 am65 °FPassing clouds.7 mph27%29.85 "Hg10 mi
1:58 am67 °FPassing clouds.6 mph26%29.83 "Hg10 mi
12:58 am71 °FPassing clouds.7 mph23%29.80 "Hg10 mi
11:58 pm
Fri, Aug 7
74 °FPassing clouds.3 mph23%29.80 "Hg10 mi
10:58 pm75 °FPassing clouds.8 mph22%29.80 "Hg10 mi
9:58 pm74 °FPassing clouds.8 mph24%29.80 "Hg10 mi
8:58 pm74 °FPassing clouds.10 mph18%29.81 "Hg10 mi
7:58 pm83 °FPassing clouds.7 mph13%29.78 "Hg10 mi
5:58 pm91 °FScattered clouds.6 mph8%29.77 "Hg10 mi
4:58 pm92 °FScattered clouds.8 mph8%29.77 "Hg10 mi
3:58 pm96 °FPassing clouds.9 mph7%29.76 "Hg10 mi
2:58 pm95 °FPassing clouds.9 mph7%29.78 "Hg10 mi
1:58 pm93 °FPassing clouds.7 mph7%29.79 "Hg10 mi
12:58 pm92 °FPassing clouds.8 mph8%29.80 "Hg10 mi
Weather by CustomWeather, © 2020

See weather overview